Tracking 31028 objects as of 17-Jul-2025
HD Live streaming from Space Station
objects crossing your sky now

STARLINK-6038

Track STARLINK-6038 now!
10-day predictions
STARLINK-6038 is classified as:


NORAD ID: 56317
Int'l Code: 2023-058A
Perigee: 569.2 km
Apogee: 571.1 km
Inclination: 97.7 °
Period: 95.9 minutes
Semi major axis: 6941 km
RCS: Unknown
Launch date: April 27, 2023
Source: United States (US)
Launch site: AIR FORCE WESTERN TEST RANGE (AFWTR)
Your satellite tracking list
Your tracking list is empty




NASA's NSSDC Master Catalog

Two Line Element Set (TLE):
1 56317U 23058A   25198.46085351  .00000154  00000-0  16617-4 0  9992
2 56317  97.6534 199.5742 0001436  50.1282 310.0068 15.01259604122485
Source of the keplerian elements: AFSPC